| time (UTC) | temp C | wind direction | speed KPH | gust KPH | rain 1hr cm | rain 24hr cm | rain mn cm | humidity % | barometer mb |
| 20260902150857 | 21 | 126 | 1.6 | 1.6 | 0.00 | 0.10 | 0.10 | 71 | |
| 20260902144829 | 20 | 152 | 0.0 | 0.0 | 0.00 | 0.10 | 0.10 | 73 | |
| 20260902143818 | 21 | 128 | 0.0 | 0.0 | 0.00 | 0.10 | 0.10 | 76 | |
| 20260902142806 | 21 | 132 | 0.0 | 0.0 | 0.00 | 0.10 | 0.10 | 72 | |
| 20260902140739 | 21 | 256 | 0.0 | 0.0 | 0.00 | 0.10 | 0.10 | 77 | |
| 20260902135728 | 21 | 152 | 0.0 | 0.0 | 0.03 | 0.10 | 0.10 | 72 | |
| 20260902134728 | 22 | 264 | 0.0 | 0.0 | 0.10 | 0.10 | 0.10 | 67 | |
| 20260902132648 | 20 | 8 | 0.0 | 0.0 | 0.10 | 0.10 | 0.10 | 78 | |
| 20260902131637 | 19 | 21 | 1.6 | 1.6 | 0.10 | 0.10 | 0.10 | 79 | |
| 20260902130625 | 17 | 356 | 0.0 | 0.0 | 0.10 | 0.10 | 0.10 | 87 | |
| 20260902124554 | 17 | 300 | 6.4 | 6.4 | 0.10 | 0.10 | 0.10 | 84 | |
| 20260902123542 | 20 | 240 | 3.2 | 3.2 | 0.00 | 0.00 | 0.00 | 63 | |
| 20260902122530 | 20 | 236 | 3.2 | 3.2 | 0.00 | 0.00 | 0.00 | 60 | |
| 20260902121521 | 23 | 311 | 1.6 | 1.6 | 0.00 | 0.00 | 0.00 | 51 | |
| 20260902115445 | 23 | 240 | 3.2 | 3.2 | 0.00 | 0.00 | 0.00 | 47 | |
| 20260902114435 | 23 | 252 | 1.6 | 1.6 | 0.00 | 0.00 | 0.00 | 49 | |
| 20260902113425 | 24 | 191 | 3.2 | 3.2 | 0.00 | 0.00 | 0.00 | 48 | |
| 20260902111350 | 22 | 330 | 1.6 | 1.6 | 0.00 | 0.00 | 0.00 | 50 | |
| 20260902110340 | 22 | 272 | 8.0 | 9.7 | 0.00 | 0.00 | 0.00 | 52 | |
| 20260902105331 | 22 | 192 | 6.4 | 6.4 | 0.00 | 0.00 | 0.00 | 53 | |
| 20260902103256 | 21 | 270 | 3.2 | 3.2 | 0.00 | 0.00 | 0.00 | 57 | |
| 20260902102247 | 22 | 344 | 0.0 | 0.0 | 0.00 | 0.00 | 0.00 | 57 | |
| 20260902101236 | 21 | 342 | 3.2 | 3.2 | 0.00 | 0.00 | 0.00 | 60 | |
| 20260902095203 | 21 | 318 | 8.0 | 8.0 | 0.00 | 0.00 | 0.00 | 59 | |
| 20260902094153 | 21 | 265 | 6.4 | 8.0 | 0.00 | 0.00 | 0.00 | 59 | |
| 20260902093143 | 21 | 301 | 1.6 | 1.6 | 0.00 | 0.00 | 0.00 | 64 | |
| 20260902091110 | 21 | 66 | 3.2 | 3.2 | 0.00 | 0.00 | 0.00 | 61 | |
| 20260902090059 | 20 | 292 | 4.8 | 4.8 | 0.00 | 0.00 | 0.00 | 62 | |
| 20260902085048 | 20 | 288 | 4.8 | 4.8 | 0.00 | 0.00 | 0.00 | 60 | |
| 20260902083016 | 20 | 271 | 0.0 | 0.0 | 0.00 | 0.00 | 0.00 | 64 | |
| 20260902082005 | 20 | 280 | 3.2 | 3.2 | 0.00 | 0.00 | 0.00 | 66 | |
| 20260902080954 | 20 | 204 | 1.6 | 1.6 | 0.00 | 0.00 | 0.00 | 68 | |
| 20260902074922 | 18 | 150 | 4.8 | 6.4 | 0.00 | 0.00 | 0.00 | 67 | |
| 20260902073913 | 18 | 308 | 1.6 | 1.6 | 0.00 | 0.00 | 0.00 | 71 | |
| 20260902072902 | 17 | 288 | 4.8 | 4.8 | 0.00 | 0.00 | 0.00 | 71 | |
| 20260902070813 | 17 | 270 | 1.6 | 1.6 | 0.00 | 0.00 | 0.00 | 75 | |
| 20260902065805 | 17 | 216 | 0.0 | 0.0 | 0.00 | 0.00 | 0.00 | 75 | |
| 20260902064753 | 16 | 307 | 3.2 | 3.2 | 0.00 | 0.00 | 0.00 | 79 | |
| 20260902062719 | 15 | 289 | 6.4 | 6.4 | 0.00 | 0.00 | 0.00 | 80 | |
| 20260902061709 | 15 | 285 | 3.2 | 3.2 | 0.00 | 0.00 | 0.00 | 83 | |
| 20260902060658 | 13 | 313 | 3.2 | 3.2 | 0.00 | 0.00 | 0.00 | 86 | |
| 20260902054615 | 13 | 282 | 4.8 | 4.8 | 0.00 | 0.00 | 0.00 | 88 | |
| 20260902053603 | 12 | 276 | 1.6 | 1.6 | 0.00 | 0.00 | 0.00 | 91 | |
| 20260902052552 | 12 | 270 | 1.6 | 1.6 | 0.00 | 0.00 | 0.00 | 93 | |
| 20260902050519 | 11 | 276 | 0.0 | 0.0 | 0.00 | 0.00 | 0.00 | 96 | |
| 20260902045510 | 11 | 288 | 0.0 | 0.0 | 0.00 | 0.00 | 0.00 | 96 | |
| 20260902043439 | 11 | 232 | 0.0 | 0.0 | 0.00 | 0.00 | 0.00 | 96 | |
| 20260902042429 | 11 | 330 | 0.0 | 0.0 | 0.00 | 0.00 | 0.00 | 96 | |
| 20260902041417 | 11 | 300 | 0.0 | 0.0 | 0.00 | 0.00 | 0.00 | 97 | |
| 20260902035344 | 11 | 297 | 1.6 | 1.6 | 0.00 | 0.00 | 0.00 | 96 | |
| 20260902034335 | 11 | 258 | 0.0 | 0.0 | 0.00 | 0.00 | 0.00 | 96 | |
| 20260902033324 | 11 | 270 | 0.0 | 0.0 | 0.00 | 0.00 | 0.00 | 96 | |
| 20260902031239 | 11 | 276 | 0.0 | 0.0 | 0.00 | 0.00 | 0.00 | 95 | |
| 20260902030229 | 11 | 321 | 0.0 | 0.0 | 0.00 | 0.00 | 0.00 | 95 | |
| 20260902025218 | 11 | 282 | 0.0 | 0.0 | 0.00 | 0.00 | 0.00 | 95 | |
| 20260902023138 | 11 | 300 | 0.0 | 0.0 | 0.00 | 0.00 | 0.00 | 95 | |
| 20260902022126 | 11 | 270 | 0.0 | 0.0 | 0.00 | 0.00 | 0.00 | 95 | |
| 20260902021116 | 11 | 204 | 0.0 | 0.0 | 0.00 | 0.00 | 0.00 | 94 | |
| 20260902015041 | 11 | 300 | 0.0 | 0.0 | 0.00 | 0.00 | 0.00 | 94 | |
| 20260902014030 | 11 | 270 | 0.0 | 0.0 | 0.00 | 0.00 | 0.00 | 93 | |
| 20260902013017 | 12 | 255 | 0.0 | 0.0 | 0.00 | 0.00 | 0.00 | 92 | |
| 20260902010953 | 12 | 228 | 0.0 | 0.0 | 0.00 | 0.00 | 0.00 | 92 | |
| 20260902005944 | 12 | 168 | 0.0 | 0.0 | 0.00 | 0.00 | 0.00 | 91 | |
| 20260902004932 | 12 | 262 | 0.0 | 0.0 | 0.00 | 0.00 | 0.00 | 92 | |
| 20260902002855 | 12 | 294 | 0.0 | 0.0 | 0.00 | 0.00 | 0.00 | 91 | |
| 20260902001845 | 12 | 309 | 0.0 | 0.0 | 0.00 | 0.00 | 0.00 | 90 | |
| 20260902000834 | 12 | 288 | 0.0 | 0.0 | 0.00 | 0.00 | 0.00 | 90 | |
| 20260901235822 | 12 | 276 | 0.0 | 0.0 | 0.00 | 0.00 | 0.00 | 91 | |
| 20260901233747 | 12 | 228 | 0.0 | 0.0 | 0.00 | 0.00 | 0.00 | 89 | |
| 20260901232738 | 12 | 303 | 0.0 | 0.0 | 0.00 | 0.00 | 0.00 | 88 | |
| 20260901231729 | 13 | 282 | 0.0 | 0.0 | 0.00 | 0.00 | 0.00 | 86 | |
| 20260901225656 | 13 | 288 | 1.6 | 1.6 | 0.00 | 0.00 | 0.00 | 83 | |
| 20260901224645 | 13 | 297 | 3.2 | 3.2 | 0.00 | 0.00 | 0.00 | 83 | |
| 20260901223644 | 13 | 276 | 3.2 | 3.2 | 0.00 | 0.00 | 0.00 | 82 | |
| 20260901221610 | 15 | 222 | 0.0 | 0.0 | 0.00 | 0.00 | 0.00 | 78 | |
| 20260901220600 | 15 | 270 | 0.0 | 0.0 | 0.00 | 0.00 | 0.00 | 76 | |
| 20260901215552 | 15 | 270 | 3.2 | 3.2 | 0.00 | 0.03 | 0.03 | 74 | |
| 20260901213516 | 14 | 294 | 3.2 | 3.2 | 0.00 | 0.03 | 0.03 | 77 | |
| 20260901212455 | 14 | 246 | 0.0 | 0.0 | 0.00 | 0.03 | 0.03 | 79 | |
| 20260901211444 | 14 | 268 | 0.0 | 0.0 | 0.00 | 0.03 | 0.03 | 79 | |
| 20260901205412 | 14 | 282 | 1.6 | 1.6 | 0.00 | 0.03 | 0.03 | 76 | |
| 20260901204401 | 15 | 258 | 0.0 | 0.0 | 0.00 | 0.03 | 0.03 | 77 | |
| 20260901203352 | 15 | 276 | 0.0 | 0.0 | 0.00 | 0.03 | 0.03 | 76 | |
| 20260901201315 | 16 | 285 | 3.2 | 3.2 | 0.00 | 0.03 | 0.03 | 70 | |
| 20260901200303 | 16 | 288 | 3.2 | 3.2 | 0.00 | 0.03 | 0.03 | 70 | |
| 20260901195253 | 16 | 294 | 3.2 | 3.2 | 0.00 | 0.03 | 0.03 | 70 | |
| 20260901193216 | 16 | 274 | 0.0 | 0.0 | 0.00 | 0.03 | 0.03 | 72 | |
| 20260901192204 | 16 | 308 | 0.0 | 0.0 | 0.00 | 0.03 | 0.03 | 71 | |
| 20260901191153 | 17 | 261 | 0.0 | 0.0 | 0.00 | 0.03 | 0.03 | 69 | |
| 20260901185130 | 17 | 284 | 3.2 | 3.2 | 0.00 | 0.03 | 0.03 | 66 | |
| 20260901184118 | 17 | 300 | 1.6 | 1.6 | 0.00 | 0.03 | 0.03 | 67 | |
| 20260901183106 | 17 | 288 | 3.2 | 3.2 | 0.00 | 0.03 | 0.03 | 66 | |
| 20260901181019 | 18 | 288 | 0.0 | 0.0 | 0.00 | 0.03 | 0.03 | 65 | |
| 20260901180009 | 18 | 280 | 3.2 | 3.2 | 0.00 | 0.03 | 0.03 | 64 | |
| 20260901175000 | 18 | 275 | 1.6 | 1.6 | 0.00 | 0.03 | 0.03 | 64 | |
| 20260901172925 | 18 | 262 | 0.0 | 0.0 | 0.00 | 0.03 | 0.03 | 61 | |
| 20260901171914 | 19 | 268 | 4.8 | 4.8 | 0.00 | 0.03 | 0.03 | 60 | |
| 20260901170901 | 20 | 297 | 3.2 | 3.2 | 0.00 | 0.03 | 0.03 | 58 | |
| 20260901164823 | 20 | 267 | 4.8 | 4.8 | 0.00 | 0.03 | 0.03 | 56 | |
| 20260901163813 | 21 | 270 | 6.4 | 6.4 | 0.00 | 0.03 | 0.03 | 54 | |
| 20260901162802 | 21 | 285 | 9.7 | 12.9 | 0.00 | 0.03 | 0.03 | 53 | |
| 20260901160724 | 21 | 266 | 6.4 | 6.4 | 0.00 | 0.03 | 0.03 | 52 | |
| 20260901155715 | 21 | 313 | 6.4 | 6.4 | 0.00 | 0.03 | 0.03 | 52 | |
| 20260901154704 | 21 | 273 | 6.4 | 6.4 | 0.00 | 0.03 | 0.03 | 52 | |
| 20260901152630 | 21 | 261 | 6.4 | 6.4 | 0.00 | 0.03 | 0.03 | 52 | |
| 20260901151618 | 21 | 318 | 9.7 | 9.7 | 0.00 | 0.03 | 0.03 | 50 |